[[{"header":{"parameterUnit":"m.s-1","parameterCategory":1,"la1":30.2991,"la2":30.254,"lo1":-89.0895,"lo2":-89.0444,"dy":0.0017,"dx":0.0017,"nx":28,"ny":28,"refTime":"2026-02-02T03:00:00:Z","depth":0,"parameterNumber":2,"parameterNumberName":"U-component_of_WINDS"},"data":[0,0,0,0,0,0,0,0,0,0,0,0,0,0,0,0,0,0,0,0,0,0,0,0,0,0,0,0,0,0,0,0,0,0,0,0,0,0,0,0,0,0,0,0,0,0,0,0,0,0,0,0,0,0,0,0,0,0,1.0248,1.0249,0,1.0285,1.0286,1.0286,1.0319,1.0319,1.032,1.032,1.036,1.0361,1.0362,0,0,0,0,0,0,0,0,0,0,0,0,0,1.0208,1.0209,1.0248,1.0249,1.0249,1.0285,1.0286,1.0286,1.0319,1.0319,1.032,1.032,1.036,1.0361,1.0362,0,0,0,0,0,0,0,0,0,0,0,0,0,1.0234,1.0209,1.0248,1.027,1.0272,1.0285,1.0286,1.0286,1.0319,1.032,1.032,1.0321,1.036,1.0361,1.0362,1.0357,0,0,1.0365,1.0365,0,0,0,0,0,0,0,0,1.0232,1.0235,1.0266,1.0268,1.0271,1.0298,1.0286,1.031,1.0319,1.0301,1.032,1.0321,1.0339,1.0342,1.0348,1.0359,1.0361,1.0365,1.0366,1.0366,1.0367,0,0,0,0,0,0,0,1.023,1.0234,1.0263,1.0267,1.027,1.0278,1.0283,1.0291,1.0317,1.0303,1.0305,1.0309,1.0341,1.0347,1.0349,1.0361,1.0365,1.0366,1.0367,1.0367,1.0372,1.0372,0,0,0,0,0,0,1.0225,1.0232,1.0262,1.0264,1.0252,1.0279,1.0283,1.0289,1.0317,1.0321,1.0309,1.031,1.0345,1.0348,1.035,1.0348,1.0366,1.0367,1.0368,1.0373,1.0372,1.0371,0,0,0,0,0,0,1.0224,1.0227,1.026,1.0249,1.0254,1.0279,1.0285,1.0289,1.0295,1.0321,1.0326,1.031,1.0345,1.0349,1.0355,1.035,1.0368,1.0369,1.0373,1.0372,1.0372,1.0342,0,0,0,0,0,0,1.0223,1.0227,1.0225,1.0248,1.0254,1.0264,1.0284,1.029,1.0297,1.03,1.0324,1.0328,1.0346,1.0354,1.0356,1.0352,1.037,1.0374,1.0373,1.0372,1.0344,1.0341,1.0338,0,0,0,0,0,1.0221,1.0215,1.0224,1.0228,1.0252,1.0263,1.0267,1.0287,1.0296,1.0295,1.0311,1.0327,1.035,1.0354,1.0357,1.0353,1.0374,1.0373,1.0372,1.0345,1.0341,1.0338,0,0,0,0,0,0,1.019,1.0218,1.0229,1.023,1.0244,1.0269,1.0268,1.0282,1.0294,1.0296,1.0321,1.0326,1.033,1.0342,1.0346,1.0351,1.0364,1.0364,1.0343,1.0339,1.0336,1.0334,1.037,0,0,0,0,0,1.0184,1.019,1.0214,1.0213,1.0219,1.0242,1.0248,1.0262,1.0278,1.0284,1.0301,1.0316,1.0327,1.0334,1.0345,1.0345,1.0352,1.0344,1.0341,1.0338,1.0338,1.0341,1.0338,1.0368,1.0368,1.0368,0,0,1.017,1.0186,1.0189,1.0207,1.022,1.0227,1.0247,1.0253,1.0259,1.0285,1.0293,1.0305,1.0324,1.0328,1.0331,1.0338,1.0331,1.0337,1.0335,1.0336,1.0339,1.0337,1.0334,1.0367,1.0367,1.0367,0,0,1.0149,1.0161,1.0162,1.0174,1.0192,1.0208,1.0208,1.023,1.024,1.0247,1.0268,1.0275,1.0293,1.0306,1.0314,1.0299,1.0314,1.0302,1.0286,1.0289,1.0286,1.0285,1.028,1.0279,1.0301,1.0301,1.0301,0,1.013,1.0141,1.0161,1.0166,1.0175,1.0198,1.02,1.0211,1.0232,1.0237,1.0245,1.0268,1.0282,1.029,1.0287,1.0292,1.0295,1.03,1.0285,1.0283,1.0282,1.0278,1.0276,1.0299,1.03,1.03,1.03,0,1.0117,1.0124,1.0123,1.0143,1.0151,1.0154,1.0176,1.0181,1.0195,1.021,1.0218,1.0235,1.0251,1.0254,1.0267,1.0264,1.0268,1.028,1.0295,1.0277,1.0274,1.0273,1.0297,1.0298,1.0298,1.0299,0,0,1.0079,1.011,1.0109,1.0119,1.014,1.0147,1.0152,1.0166,1.0172,1.0185,1.0191,1.0205,1.0217,1.0227,1.0242,1.0244,1.0232,1.0256,1.0257,1.0252,1.0232,1.0223,1.0221,1.0242,1.0242,1.0242,1.0231,0,1.0063,1.0073,1.0091,1.0095,1.0103,1.0125,1.013,1.0144,1.0158,1.0167,1.0183,1.0193,1.0206,1.0213,1.0216,1.0233,1.0229,1.0234,1.0249,1.0249,1.0245,1.022,1.0211,1.02,1.0229,1.0229,1.0229,0,1.0046,1.0058,1.0062,1.0085,1.0088,1.0092,1.0108,1.0115,1.0133,1.0143,1.0154,1.0171,1.0178,1.019,1.0202,1.0205,1.0213,1.0222,1.0222,1.0226,1.0239,1.0224,1.0196,1.0195,1.0227,1.0227,1.0227,0,1.0019,1.0036,1.0042,1.0049,1.0075,1.0077,1.0088,1.0106,1.0114,1.0127,1.0133,1.0148,1.0156,1.0167,1.0188,1.0195,1.0198,1.0212,1.0208,1.0208,1.0209,1.0209,1.0183,1.0211,1.0211,1.0211,1.0211,0,1.0,1.0002,1.003,1.0034,1.0037,1.0059,1.0062,1.0075,1.0091,1.0098,1.0118,1.0125,1.0151,1.0161,1.0177,1.0185,1.0188,1.0198,1.0202,1.0197,1.0196,1.0203,1.0205,1.0211,1.0211,1.0211,1.0211,0,0.9972,0.999,0.9998,1.0021,1.0027,1.0029,1.0049,1.0054,1.0069,1.0078,1.0081,1.0105,1.0118,1.0139,1.0158,1.0169,1.0175,1.0182,1.0169,1.0172,1.0168,1.0168,1.0147,1.0146,1.0173,1.0173,1.0172,0,0.9959,0.9961,0.9985,0.9991,1.0001,1.001,1.0018,1.0039,1.0047,1.0067,1.007,1.0084,1.0097,1.0116,1.0136,1.0151,1.0159,1.0151,1.0162,1.0157,1.0161,1.0161,1.0162,1.0149,1.0148,1.0148,1.0148,0,0.9935,0.9944,0.9954,0.9968,0.9977,0.9989,1.0002,1.0006,1.0031,1.0039,1.0052,1.0061,1.0081,1.0095,1.0113,1.0126,1.0142,1.0144,1.0144,1.0139,1.0132,1.0138,1.0164,1.0145,1.0145,1.0145,1.0145,1.0146,0.9915,0.9919,0.9936,0.9947,0.9959,0.9971,0.9977,0.9992,1.0003,1.002,1.0032,1.0044,1.0063,1.0088,1.01,1.0111,1.0118,1.0118,1.0118,1.0118,1.0117,1.0129,1.0114,1.0114,1.0114,1.0115,1.0115,0,0.9893,0.9905,0.9915,0.9933,0.9942,0.9954,0.997,0.9977,0.9987,1.0003,1.0014,1.003,1.0044,1.0065,1.0081,1.0086,1.0094,1.009,1.009,1.0093,1.0109,1.0108,1.0083,1.0083,1.0083,1.0083,1.0083,1.0083,0.9883,0.989,0.9901,0.9914,0.9927,0.9938,0.9946,0.9958,0.997,0.9986,0.9998,1.0011,1.0029,1.0046,1.0061,1.0066,1.0072,1.0066,1.0074,1.0089,1.0092,1.0095,1.0094,1.0067,1.0067,1.0058,1.0058,1.0058]},{"header":{"parameterUnit":"m.s-1","parameterCategory":1,"la1":30.2991,"la2":30.254,"lo1":-89.0895,"lo2":-89.0444,"dy":0.0017,"dx":0.0017,"nx":28,"ny":28,"refTime":"2026-02-02T03:00:00:Z","depth":0,"parameterNumber":3,"parameterNumberName":"V-component_of_WINDS"},"data":[0,0,0,0,0,0,0,0,0,0,0,0,0,0,0,0,0,0,0,0,0,0,0,0,0,0,0,0,0,0,0,0,0,0,0,0,0,0,0,0,0,0,0,0,0,0,0,0,0,0,0,0,0,0,0,0,0,0,4.2287,4.2286,0,4.2273,4.2273,4.2273,4.2267,4.2267,4.2267,4.2267,4.2251,4.225,4.225,0,0,0,0,0,0,0,0,0,0,0,0,0,4.2305,4.2305,4.2287,4.2286,4.2286,4.2273,4.2273,4.2273,4.2267,4.2267,4.2267,4.2267,4.2251,4.225,4.225,0,0,0,0,0,0,0,0,0,0,0,0,0,4.2295,4.2304,4.2287,4.2282,4.2281,4.2274,4.2273,4.2273,4.2267,4.2267,4.2267,4.2267,4.2251,4.2251,4.225,4.2246,0,0,4.2248,4.2248,0,0,0,0,0,0,0,0,4.2295,4.2294,4.2282,4.2282,4.2281,4.2272,4.2274,4.2264,4.2267,4.2272,4.2267,4.2267,4.2258,4.2256,4.2254,4.2245,4.2244,4.2248,4.2247,4.2247,4.2247,0,0,0,0,0,0,0,4.2296,4.2295,4.2281,4.2282,4.2282,4.228,4.2278,4.2272,4.2265,4.2272,4.2271,4.227,4.2257,4.2255,4.2253,4.2244,4.2248,4.2247,4.2247,4.2247,4.2233,4.2233,0,0,0,0,0,0,4.2298,4.2295,4.2282,4.2281,4.2289,4.2279,4.2278,4.2275,4.2265,4.2263,4.227,4.227,4.2256,4.2254,4.2253,4.2249,4.2247,4.2247,4.2246,4.2233,4.2233,4.2233,0,0,0,0,0,0,4.2298,4.2297,4.2282,4.2288,4.2286,4.2279,4.2276,4.2274,4.2272,4.2264,4.2262,4.2268,4.2256,4.2254,4.2248,4.2248,4.2246,4.2246,4.2233,4.2233,4.2233,4.2239,0,0,0,0,0,0,4.2299,4.2297,4.2295,4.2288,4.2286,4.2278,4.2276,4.2274,4.2271,4.2271,4.2262,4.226,4.2255,4.2249,4.2247,4.2247,4.2245,4.2233,4.2233,4.2233,4.2239,4.2239,4.224,0,0,0,0,0,4.2299,4.2297,4.2295,4.2294,4.2284,4.2278,4.2277,4.2272,4.2271,4.2269,4.2264,4.2261,4.2248,4.2249,4.2247,4.2246,4.2233,4.2233,4.2233,4.2239,4.2239,4.224,0,0,0,0,0,0,4.2303,4.2296,4.2294,4.2289,4.2284,4.2277,4.2275,4.2272,4.2267,4.2267,4.226,4.2258,4.2253,4.2249,4.2249,4.2242,4.224,4.224,4.2245,4.2246,4.2246,4.2247,4.2245,0,0,0,0,0,4.2303,4.23,4.2293,4.2289,4.2287,4.2282,4.2279,4.2276,4.227,4.2268,4.2262,4.2257,4.2252,4.2248,4.2243,4.2238,4.2237,4.2237,4.2237,4.2238,4.2237,4.2236,4.2236,4.2233,4.2233,4.2233,0,0,4.2303,4.2299,4.2297,4.229,4.2286,4.2283,4.228,4.2276,4.2273,4.2267,4.2262,4.2258,4.2251,4.2246,4.2244,4.2242,4.2238,4.2238,4.2238,4.2238,4.2236,4.2236,4.2237,4.2233,4.2233,4.2233,0,0,4.2302,4.2299,4.2296,4.2292,4.2287,4.2283,4.2283,4.2276,4.2274,4.2269,4.2265,4.2261,4.2252,4.2248,4.2245,4.2244,4.2241,4.2242,4.2245,4.2243,4.2244,4.2244,4.2245,4.2245,4.2242,4.2242,4.2242,0,4.2303,4.2298,4.2294,4.2291,4.2288,4.2284,4.2282,4.2278,4.2271,4.2269,4.2268,4.2258,4.2253,4.2248,4.2248,4.2245,4.2244,4.2243,4.2244,4.2244,4.2244,4.2245,4.2245,4.2243,4.2243,4.2243,4.2243,0,4.23,4.2297,4.2295,4.229,4.2287,4.2284,4.2279,4.2277,4.2274,4.2271,4.2266,4.2261,4.2255,4.2253,4.225,4.2248,4.2248,4.2245,4.2243,4.2245,4.2246,4.2246,4.2243,4.2243,4.2243,4.2243,0,0,4.23,4.2294,4.2293,4.2292,4.2286,4.2283,4.228,4.2276,4.2274,4.227,4.2268,4.2261,4.226,4.2256,4.2252,4.2251,4.2252,4.2249,4.2249,4.225,4.2251,4.2253,4.2254,4.225,4.225,4.225,4.2252,0,4.2299,4.2294,4.2291,4.2288,4.2285,4.2282,4.2279,4.2276,4.2273,4.227,4.2266,4.2262,4.226,4.2258,4.2257,4.2252,4.2252,4.2252,4.2248,4.2248,4.2251,4.2254,4.2256,4.2258,4.2252,4.2252,4.2252,0,4.2296,4.2294,4.229,4.2287,4.2285,4.2283,4.228,4.2277,4.2273,4.2271,4.2268,4.2265,4.2262,4.226,4.2257,4.2257,4.2255,4.2253,4.2253,4.2252,4.225,4.2254,4.2258,4.2259,4.2252,4.2252,4.2252,0,4.2298,4.2293,4.2291,4.2289,4.2285,4.2284,4.2282,4.2278,4.2276,4.2273,4.2272,4.2268,4.2265,4.2263,4.2259,4.2257,4.2255,4.2253,4.2254,4.2254,4.2254,4.2254,4.2258,4.2252,4.2252,4.2252,4.2252,0,4.2297,4.2295,4.2292,4.229,4.2289,4.2285,4.2284,4.2281,4.2278,4.2276,4.2273,4.2271,4.2266,4.2264,4.226,4.2258,4.2257,4.2256,4.2255,4.2256,4.2256,4.2255,4.2255,4.2252,4.2252,4.2252,4.2252,0,4.2298,4.2295,4.2293,4.229,4.2289,4.2288,4.2285,4.2284,4.2281,4.2279,4.2278,4.2274,4.2271,4.2267,4.2263,4.2261,4.226,4.2258,4.2261,4.2261,4.2262,4.2263,4.2266,4.2267,4.226,4.226,4.226,0,4.2297,4.2296,4.2294,4.2293,4.2291,4.229,4.2288,4.2285,4.2284,4.2281,4.228,4.2277,4.2275,4.2271,4.2267,4.2264,4.2263,4.2264,4.2262,4.2264,4.2264,4.2264,4.2265,4.2265,4.2265,4.2265,4.2265,0,4.2298,4.2297,4.2296,4.2294,4.2293,4.2292,4.229,4.2289,4.2286,4.2284,4.2282,4.2281,4.2277,4.2275,4.2272,4.2269,4.2267,4.2266,4.2266,4.2268,4.227,4.227,4.2263,4.2266,4.2266,4.2266,4.2266,4.2266,4.2299,4.2298,4.2297,4.2296,4.2294,4.2293,4.2292,4.2291,4.2289,4.2287,4.2285,4.2284,4.2281,4.2277,4.2275,4.2273,4.2272,4.2272,4.2272,4.2273,4.2274,4.227,4.2273,4.2273,4.2273,4.2273,4.2273,0,4.2299,4.2299,4.2298,4.2297,4.2296,4.2295,4.2293,4.2293,4.2292,4.229,4.2288,4.2287,4.2285,4.2282,4.228,4.2279,4.2278,4.2279,4.2279,4.2279,4.2274,4.2275,4.228,4.228,4.228,4.228,4.228,4.228,4.23,4.23,4.2299,4.2298,4.2297,4.2297,4.2296,4.2295,4.2294,4.2293,4.2292,4.229,4.2288,4.2286,4.2285,4.2284,4.2284,4.2285,4.2284,4.228,4.2279,4.2278,4.2279,4.2285,4.2285,4.2289,4.2289,4.2289]}]]